Location: Recife
(8.0585°S, 34.8848°W)
Time: 10:02:10
(UTC-03:00)

Courier 1B Rocket - Pass Details

Date: 17 April 2026
Orbit: 920 x 1201 km, 28.2° (Epoch: 13 May)

Event Time Altitude Azimuth Distance (km) Brightness Sun altitude
Rises 08:25:46 0° 233° (SW) 3,767 7.6 43.0°
Reaches altitude 10° 08:30:05 10° 208° (SSW) 2,883 7.2 44.0°
Maximum altitude 08:33:29 14° 179° (S) 2,659 7.3 44.8°
Drops below altitude 10° 08:36:59 10° 150° (SSE) 2,985 7.7 45.6°
Sets 08:41:37 0° 126° (SE) 4,005 8.5 46.6°
